Location: Arborea
(39.7744°N, 8.5819°E)
Time: 08:23:07
(UTC+00:00)

EXPRESS MD2 - Pass Details

Date: 24 October 2021
Orbit: 262 x 3913 km, 49.9° (Epoch: 02 December)

Event Time Altitude Azimuth Distance (km) Brightness Sun altitude
Rises 17:25:15 0° 212° (SSW) 2,027 6.8 -10.6°
Reaches altitude 10° 17:27:26 10° 195° (SSW) 1,079 5.1 -11.0°
Maximum altitude 17:29:14 22° 138° (SE) 632 3.3 -11.3°
Enters shadow 17:29:43 20° 116° (ESE) 676 3.3 -11.4°
